Time,TemperatureF,DewpointF,PressureIn,WindDirection,WindDirectionDegrees,WindSpeedMPH,WindSpeedGustMPH,Humidity,HourlyPrecipIn,Conditions,Clouds,dailyrainin,SoftwareType,DateUTC
2013-09-28 00:00:00,64.0,53.6,29.69,NNW,337,15.0,17.0,69,0.00,,,0.00,Weather View 32 v70,2013-09-28 04:00:00,
2013-09-28 00:05:00,64.0,54.4,29.67,NNW,337,10.0,19.0,71,0.00,,,0.00,Weather View 32 v70,2013-09-28 04:05:00,
2013-09-28 00:10:00,64.0,53.6,29.67,NNW,337,9.0,19.0,69,0.00,,,0.00,Weather View 32 v70,2013-09-28 04:10:00,
2013-09-28 00:20:00,64.0,53.6,29.69,NNW,337,6.0,19.0,69,0.00,,,0.00,Weather View 32 v70,2013-09-28 04:20:00,
2013-09-28 00:25:00,64.0,54.4,29.67,NNW,337,14.0,19.0,71,0.00,,,0.00,Weather View 32 v70,2013-09-28 04:25:00,
2013-09-28 00:35:00,64.0,54.4,29.67,NNW,337,9.0,19.0,71,0.00,,,0.00,Weather View 32 v70,2013-09-28 04:35:00,
2013-09-28 00:40:00,64.0,53.6,29.67,NNW,337,15.0,19.0,69,0.00,,,0.00,Weather View 32 v70,2013-09-28 04:40:00,
2013-09-28 00:45:00,64.0,54.0,29.69,NNW,337,12.0,19.0,70,0.00,,,0.00,Weather View 32 v70,2013-09-28 04:45:00,
2013-09-28 00:50:00,64.0,53.6,29.69,NNW,337,10.0,19.0,69,0.00,,,0.00,Weather View 32 v70,2013-09-28 04:50:00,
2013-09-28 00:55:00,64.0,54.4,29.69,NNW,337,16.0,19.0,71,0.00,,,0.00,Weather View 32 v70,2013-09-28 04:55:00,
2013-09-28 01:05:00,64.0,54.4,29.67,NNW,337,16.0,20.0,71,0.00,,,0.00,Weather View 32 v70,2013-09-28 05:05:00,
2013-09-28 01:10:00,64.0,53.6,29.67,NNW,337,10.0,20.0,69,0.00,,,0.00,Weather View 32 v70,2013-09-28 05:10:00,
2013-09-28 01:20:00,64.0,53.6,29.68,NNW,337,15.0,20.0,69,0.00,,,0.00,Weather View 32 v70,2013-09-28 05:20:00,
2013-09-28 01:30:00,64.0,53.6,29.68,NNW,337,15.0,20.0,69,0.00,,,0.00,Weather View 32 v70,2013-09-28 05:30:00,
2013-09-28 01:35:00,64.0,54.4,29.67,NNW,337,12.0,20.0,71,0.00,,,0.00,Weather View 32 v70,2013-09-28 05:35:00,
2013-09-28 01:45:00,64.0,54.4,29.68,NNW,337,8.0,22.0,71,0.00,,,0.00,Weather View 32 v70,2013-09-28 05:45:00,
2013-09-28 01:50:00,64.0,53.6,29.68,NNW,337,16.0,22.0,69,0.00,,,0.00,Weather View 32 v70,2013-09-28 05:50:00,
2013-09-28 01:55:00,64.0,54.4,29.68,NNW,337,15.0,22.0,71,0.00,,,0.00,Weather View 32 v70,2013-09-28 05:55:00,
2013-09-28 02:00:00,64.0,53.6,29.68,NNW,337,13.0,22.0,69,0.00,,,0.00,Weather View 32 v70,2013-09-28 06:00:00,
2013-09-28 02:05:00,64.0,54.0,29.66,NNW,337,10.0,22.0,70,0.00,,,0.00,Weather View 32 v70,2013-09-28 06:05:00,
2013-09-28 02:10:00,64.0,53.6,29.66,NNW,337,14.0,22.0,69,0.00,,,0.00,Weather View 32 v70,2013-09-28 06:10:00,
2013-09-28 02:15:00,64.0,54.0,29.67,NNW,337,19.0,22.0,70,0.00,,,0.00,Weather View 32 v70,2013-09-28 06:15:00,
2013-09-28 02:20:00,64.0,53.6,29.67,NNW,337,17.0,22.0,69,0.00,,,0.00,Weather View 32 v70,2013-09-28 06:20:00,
2013-09-28 02:25:00,64.0,54.0,29.67,NNW,337,17.0,22.0,70,0.00,,,0.00,Weather View 32 v70,2013-09-28 06:25:00,
2013-09-28 02:30:00,64.0,53.2,29.67,NNW,337,9.0,22.0,68,0.00,,,0.00,Weather View 32 v70,2013-09-28 06:30:00,
2013-09-28 02:35:00,64.0,54.0,29.65,NNW,337,13.0,22.0,70,0.00,,,0.00,Weather View 32 v70,2013-09-28 06:35:00,
2013-09-28 02:40:00,64.0,53.6,29.65,NNW,337,17.0,23.0,69,0.00,,,0.00,Weather View 32 v70,2013-09-28 06:40:00,
2013-09-28 02:45:00,64.0,54.0,29.65,NNW,337,16.0,23.0,70,0.00,,,0.00,Weather View 32 v70,2013-09-28 06:45:00,
2013-09-28 02:50:00,64.0,53.6,29.65,NNW,337,15.0,23.0,69,0.00,,,0.00,Weather View 32 v70,2013-09-28 06:50:00,
2013-09-28 02:55:00,64.0,54.0,29.67,NNW,337,12.0,23.0,70,0.00,,,0.00,Weather View 32 v70,2013-09-28 06:55:00,
2013-09-28 03:00:00,64.0,53.2,29.67,NNW,337,10.0,23.0,68,0.00,,,0.00,Weather View 32 v70,2013-09-28 07:00:00,
2013-09-28 03:10:00,64.0,53.2,29.65,NNW,337,15.0,23.0,68,0.00,,,0.00,Weather View 32 v70,2013-09-28 07:10:00,
2013-09-28 03:11:00,64.0,53.2,29.65,NNW,337,15.0,23.0,68,0.00,,,0.00,Weather View 32 v70,2013-09-28 07:11:00,
2013-09-28 03:20:00,64.0,53.2,29.65,NNW,337,9.0,23.0,68,0.00,,,0.00,Weather View 32 v70,2013-09-28 07:20:00,
2013-09-28 03:25:00,64.0,54.0,29.67,NNW,337,12.0,24.0,70,0.00,,,0.00,Weather View 32 v70,2013-09-28 07:25:00,
2013-09-28 03:30:00,64.0,52.8,29.67,NNW,337,14.0,24.0,67,0.00,,,0.00,Weather View 32 v70,2013-09-28 07:30:00,
2013-09-28 03:35:00,64.0,54.0,29.65,NNW,337,12.0,24.0,70,0.00,,,0.00,Weather View 32 v70,2013-09-28 07:35:00,
2013-09-28 03:40:00,64.0,52.8,29.65,NNW,337,12.0,24.0,67,0.00,,,0.00,Weather View 32 v70,2013-09-28 07:40:00,
2013-09-28 03:45:00,64.0,54.0,29.66,NNW,337,7.0,24.0,70,0.00,,,0.00,Weather View 32 v70,2013-09-28 07:45:00,
2013-09-28 03:50:00,64.0,52.8,29.66,NNW,337,12.0,24.0,67,0.00,,,0.00,Weather View 32 v70,2013-09-28 07:50:00,
2013-09-28 03:55:00,64.0,54.0,29.66,NNW,337,9.0,24.0,70,0.00,,,0.00,Weather View 32 v70,2013-09-28 07:55:00,
2013-09-28 04:00:00,64.0,52.8,29.66,NNW,337,13.0,24.0,67,0.00,,,0.00,Weather View 32 v70,2013-09-28 08:00:00,
2013-09-28 04:10:00,64.0,52.8,29.65,NNW,337,12.0,24.0,67,0.00,,,0.00,Weather View 32 v70,2013-09-28 08:10:00,
2013-09-28 04:15:00,64.0,54.0,29.65,NNW,337,7.0,24.0,70,0.00,,,0.00,Weather View 32 v70,2013-09-28 08:15:00,
2013-09-28 04:20:00,64.0,52.8,29.65,NNW,337,12.0,24.0,67,0.00,,,0.00,Weather View 32 v70,2013-09-28 08:20:00,
2013-09-28 04:25:00,64.0,54.0,29.64,NNW,337,15.0,23.0,70,0.00,,,0.00,Weather View 32 v70,2013-09-28 08:25:00,
2013-09-28 04:30:00,64.0,52.8,29.64,NNW,337,9.0,22.0,67,0.00,,,0.00,Weather View 32 v70,2013-09-28 08:30:00,
2013-09-28 04:35:00,64.0,54.0,29.65,NNW,337,11.0,22.0,70,0.00,,,0.00,Weather View 32 v70,2013-09-28 08:35:00,
2013-09-28 04:40:00,64.0,52.4,29.65,NNW,337,10.0,22.0,66,0.00,,,0.00,Weather View 32 v70,2013-09-28 08:40:00,
2013-09-28 04:45:00,64.0,53.6,29.66,NNW,337,17.0,22.0,69,0.00,,,0.00,Weather View 32 v70,2013-09-28 08:45:00,
2013-09-28 04:50:00,64.0,52.8,29.66,NNW,337,14.0,22.0,67,0.00,,,0.00,Weather View 32 v70,2013-09-28 08:50:00,
2013-09-28 04:55:00,64.0,53.6,29.65,NNW,337,12.0,22.0,69,0.00,,,0.00,Weather View 32 v70,2013-09-28 08:55:00,
2013-09-28 05:00:00,64.0,52.4,29.65,NNW,337,17.0,22.0,66,0.00,,,0.00,Weather View 32 v70,2013-09-28 09:00:00,
2013-09-28 05:10:00,64.0,52.4,29.67,NNW,337,11.0,21.0,66,0.00,,,0.00,Weather View 32 v70,2013-09-28 09:10:00,
2013-09-28 05:15:00,64.0,53.6,29.64,NNW,337,18.0,21.0,69,0.00,,,0.00,Weather View 32 v70,2013-09-28 09:15:00,
2013-09-28 05:20:00,64.0,52.4,29.64,NNW,337,17.0,22.0,66,0.00,,,0.00,Weather View 32 v70,2013-09-28 09:20:00,
2013-09-28 05:25:00,64.0,53.6,29.65,NNW,337,20.0,22.0,69,0.00,,,0.00,Weather View 32 v70,2013-09-28 09:25:00,
2013-09-28 05:30:00,64.0,52.4,29.65,ENE,67,19.0,23.0,66,0.00,,,0.00,Weather View 32 v70,2013-09-28 09:30:00,
2013-09-28 05:35:00,64.0,53.6,29.66,NNW,337,12.0,23.0,69,0.00,,,0.00,Weather View 32 v70,2013-09-28 09:35:00,
2013-09-28 05:40:00,64.0,52.4,29.66,NNW,337,8.0,23.0,66,0.00,,,0.00,Weather View 32 v70,2013-09-28 09:40:00,
2013-09-28 05:45:00,64.0,53.6,29.66,NNW,337,7.0,23.0,69,0.00,,,0.00,Weather View 32 v70,2013-09-28 09:45:00,
2013-09-28 05:50:00,64.0,52.4,29.66,ENE,67,16.0,23.0,66,0.00,,,0.00,Weather View 32 v70,2013-09-28 09:50:00,
2013-09-28 06:00:00,64.0,52.4,29.67,NNW,337,15.0,23.0,66,0.00,,,0.00,Weather View 32 v70,2013-09-28 10:00:00,
2013-09-28 06:05:00,64.0,53.6,29.67,NNW,337,17.0,23.0,69,0.00,,,0.00,Weather View 32 v70,2013-09-28 10:05:00,
2013-09-28 06:10:00,64.0,52.0,29.67,NNW,337,16.0,23.0,65,0.00,,,0.00,Weather View 32 v70,2013-09-28 10:10:00,
2013-09-28 06:15:00,64.0,53.6,29.67,NNW,337,20.0,23.0,69,0.00,,,0.00,Weather View 32 v70,2013-09-28 10:15:00,
2013-09-28 06:20:00,64.0,52.0,29.67,NNW,337,14.0,23.0,65,0.00,,,0.00,Weather View 32 v70,2013-09-28 10:20:00,
2013-09-28 06:25:00,64.0,53.6,29.66,NNW,337,16.0,23.0,69,0.00,,,0.00,Weather View 32 v70,2013-09-28 10:25:00,
2013-09-28 06:30:00,64.0,52.0,29.66,NNW,337,15.0,23.0,65,0.00,,,0.00,Weather View 32 v70,2013-09-28 10:30:00,
2013-09-28 06:35:00,64.0,53.6,29.66,NNW,337,10.0,23.0,69,0.00,,,0.00,Weather View 32 v70,2013-09-28 10:35:00,
2013-09-28 06:45:00,64.0,52.0,29.66,NNW,337,15.0,23.0,65,0.00,,,0.00,Weather View 32 v70,2013-09-28 10:45:00,
2013-09-28 06:50:00,63.0,51.0,29.69,NNW,337,16.0,23.0,65,0.00,,,0.00,Weather View 32 v70,2013-09-28 10:50:00,
2013-09-28 06:55:00,63.0,51.0,29.69,NNW,337,17.0,23.0,65,0.00,,,0.00,Weather View 32 v70,2013-09-28 10:55:00,
2013-09-28 07:00:00,63.0,51.0,29.70,NNW,337,13.0,23.0,65,0.00,,,0.00,Weather View 32 v70,2013-09-28 11:00:00,
2013-09-28 07:05:00,63.0,51.0,29.70,NNW,337,16.0,23.0,65,0.00,,,0.00,Weather View 32 v70,2013-09-28 11:05:00,
2013-09-28 07:10:00,63.0,51.0,29.69,NNW,337,16.0,23.0,65,0.00,,,0.00,Weather View 32 v70,2013-09-28 11:10:00,
2013-09-28 07:15:00,63.0,51.0,29.69,NNW,337,18.0,23.0,65,0.00,,,0.00,Weather View 32 v70,2013-09-28 11:15:00,
2013-09-28 07:20:00,63.0,51.0,29.69,NNW,337,9.0,23.0,65,0.00,,,0.00,Weather View 32 v70,2013-09-28 11:20:00,
2013-09-28 07:25:00,63.0,51.0,29.69,NNW,337,13.0,23.0,65,0.00,,,0.00,Weather View 32 v70,2013-09-28 11:25:00,
2013-09-28 07:30:00,63.0,50.6,29.69,NNW,337,15.0,23.0,64,0.00,,,0.00,Weather View 32 v70,2013-09-28 11:30:00,
2013-09-28 07:35:00,63.0,51.0,29.69,NNW,337,13.0,23.0,65,0.00,,,0.00,Weather View 32 v70,2013-09-28 11:35:00,
2013-09-28 07:40:00,63.0,50.6,29.69,NNW,337,10.0,23.0,64,0.00,,,0.00,Weather View 32 v70,2013-09-28 11:40:00,
2013-09-28 07:50:00,63.0,51.0,29.71,NNW,337,19.0,23.0,65,0.00,,,0.00,Weather View 32 v70,2013-09-28 11:50:00,
2013-09-28 07:55:00,64.0,52.0,29.71,NNW,337,15.0,23.0,65,0.00,,,0.00,Weather View 32 v70,2013-09-28 11:55:00,
2013-09-28 08:00:00,63.0,51.0,29.71,NNW,337,15.0,23.0,65,0.00,,,0.00,Weather View 32 v70,2013-09-28 12:00:00,
2013-09-28 08:05:00,63.0,51.0,29.71,NNW,337,10.0,23.0,65,0.00,,,0.00,Weather View 32 v70,2013-09-28 12:05:00,
2013-09-28 08:10:00,63.0,51.0,29.71,NNW,337,14.0,23.0,65,0.00,,,0.00,Weather View 32 v70,2013-09-28 12:10:00,
2013-09-28 08:15:00,63.0,51.0,29.71,NNW,337,15.0,23.0,65,0.00,,,0.00,Weather View 32 v70,2013-09-28 12:15:00,
2013-09-28 08:20:00,64.0,52.0,29.72,NNW,337,13.0,23.0,65,0.00,,,0.00,Weather View 32 v70,2013-09-28 12:20:00,
2013-09-28 08:25:00,64.0,52.0,29.72,NNW,337,19.0,23.0,65,0.00,,,0.00,Weather View 32 v70,2013-09-28 12:25:00,
2013-09-28 08:35:00,64.0,52.0,29.69,NNW,337,20.0,23.0,65,0.00,,,0.00,Weather View 32 v70,2013-09-28 12:35:00,
2013-09-28 08:40:00,64.0,52.0,29.69,NNW,337,20.0,23.0,65,0.00,,,0.00,Weather View 32 v70,2013-09-28 12:40:00,
2013-09-28 08:45:00,64.0,52.0,29.69,NNW,337,11.0,23.0,65,0.00,,,0.00,Weather View 32 v70,2013-09-28 12:45:00,
2013-09-28 08:50:00,64.0,52.0,29.72,NNW,337,18.0,25.0,65,0.00,,,0.00,Weather View 32 v70,2013-09-28 12:50:00,
2013-09-28 08:55:00,65.0,53.3,29.72,NNW,337,23.0,25.0,66,0.00,,,0.00,Weather View 32 v70,2013-09-28 12:55:00,
2013-09-28 09:00:00,66.0,54.7,29.70,NNW,337,16.0,25.0,67,0.00,,,0.00,Weather View 32 v70,2013-09-28 13:00:00,
2013-09-28 09:05:00,66.0,54.7,29.70,NNW,337,20.0,25.0,67,0.00,,,0.00,Weather View 32 v70,2013-09-28 13:05:00,
2013-09-28 09:10:00,66.0,54.7,29.71,ENE,67,22.0,25.0,67,0.00,,,0.00,Weather View 32 v70,2013-09-28 13:10:00,
2013-09-28 09:15:00,66.0,54.7,29.71,NNW,337,16.0,26.0,67,0.00,,,0.00,Weather View 32 v70,2013-09-28 13:15:00,
2013-09-28 09:25:00,66.0,55.1,29.69,NNW,337,18.0,26.0,68,0.00,,,0.00,Weather View 32 v70,2013-09-28 13:25:00,
2013-09-28 09:30:00,67.0,56.1,29.72,NNW,337,13.0,26.0,68,0.00,,,0.00,Weather View 32 v70,2013-09-28 13:30:00,
2013-09-28 09:35:00,67.0,56.5,29.72,ENE,67,12.0,26.0,69,0.00,,,0.00,Weather View 32 v70,2013-09-28 13:35:00,
2013-09-28 09:40:00,67.0,56.5,29.71,NNW,337,19.0,26.0,69,0.00,,,0.00,Weather View 32 v70,2013-09-28 13:40:00,
2013-09-28 09:45:00,67.0,56.5,29.71,NNW,337,16.0,26.0,69,0.00,,,0.00,Weather View 32 v70,2013-09-28 13:45:00,
2013-09-28 09:50:00,68.0,57.8,29.69,NNW,337,11.0,26.0,70,0.00,,,0.00,Weather View 32 v70,2013-09-28 13:50:00,
2013-09-28 09:55:00,68.0,57.8,29.69,NNW,337,15.0,26.0,70,0.00,,,0.00,Weather View 32 v70,2013-09-28 13:55:00,
2013-09-28 10:00:00,68.0,57.8,29.70,NNW,337,17.0,26.0,70,0.00,,,0.00,Weather View 32 v70,2013-09-28 14:00:00,
2013-09-28 10:10:00,69.0,59.2,29.71,NNW,337,15.0,26.0,71,0.00,,,0.00,Weather View 32 v70,2013-09-28 14:10:00,
2013-09-28 10:15:00,69.0,59.2,29.71,NNW,337,17.0,25.0,71,0.00,,,0.00,Weather View 32 v70,2013-09-28 14:15:00,
2013-09-28 10:25:00,70.0,60.1,29.69,NNW,337,15.0,25.0,71,0.00,,,0.00,Weather View 32 v70,2013-09-28 14:25:00,
2013-09-28 10:30:00,70.0,60.1,29.69,NNW,337,13.0,25.0,71,0.00,,,0.00,Weather View 32 v70,2013-09-28 14:30:00,
2013-09-28 10:35:00,70.0,60.1,29.69,NNW,337,19.0,25.0,71,0.00,,,0.00,Weather View 32 v70,2013-09-28 14:35:00,
2013-09-28 10:40:00,70.0,60.1,29.69,NNW,337,12.0,25.0,71,0.00,,,0.00,Weather View 32 v70,2013-09-28 14:40:00,
2013-09-28 10:50:00,70.0,60.1,29.68,NNW,337,19.0,23.0,71,0.00,,,0.00,Weather View 32 v70,2013-09-28 14:50:00,
2013-09-28 11:00:00,70.0,60.1,29.71,ENE,67,18.0,24.0,71,0.00,,,0.00,Weather View 32 v70,2013-09-28 15:00:00,
2013-09-28 11:05:00,71.0,61.1,29.71,NNW,337,12.0,24.0,71,0.00,,,0.00,Weather View 32 v70,2013-09-28 15:05:00,
2013-09-28 11:10:00,71.0,61.5,29.71,NNW,337,16.0,24.0,72,0.00,,,0.00,Weather View 32 v70,2013-09-28 15:10:00,
2013-09-28 11:15:00,71.0,61.5,29.71,NNW,337,15.0,24.0,72,0.00,,,0.00,Weather View 32 v70,2013-09-28 15:15:00,
2013-09-28 11:25:00,71.0,61.5,29.69,NNW,337,19.0,24.0,72,0.00,,,0.00,Weather View 32 v70,2013-09-28 15:25:00,
2013-09-28 11:30:00,71.0,61.5,29.71,ENE,67,19.0,24.0,72,0.00,,,0.00,Weather View 32 v70,2013-09-28 15:30:00,
2013-09-28 11:40:00,71.0,61.5,29.68,ENE,67,21.0,26.0,72,0.00,,,0.00,Weather View 32 v70,2013-09-28 15:40:00,
2013-09-28 11:45:00,71.0,61.9,29.68,ENE,67,24.0,27.0,73,0.00,,,0.00,Weather View 32 v70,2013-09-28 15:45:00,
2013-09-28 11:50:00,71.0,61.9,29.68,ENE,67,24.0,28.0,73,0.00,,,0.00,Weather View 32 v70,2013-09-28 15:50:00,
2013-09-28 11:55:00,72.0,62.8,29.68,NNW,337,22.0,28.0,73,0.00,,,0.00,Weather View 32 v70,2013-09-28 15:55:00,
2013-09-28 12:00:00,71.0,61.9,29.69,ENE,67,20.0,28.0,73,0.00,,,0.00,Weather View 32 v70,2013-09-28 16:00:00,
2013-09-28 12:05:00,71.0,61.9,29.69,ENE,67,22.0,28.0,73,0.00,,,0.00,Weather View 32 v70,2013-09-28 16:05:00,
2013-09-28 12:10:00,71.0,61.9,29.69,ENE,67,17.0,28.0,73,0.00,,,0.00,Weather View 32 v70,2013-09-28 16:10:00,
2013-09-28 12:15:00,72.0,62.8,29.69,ENE,67,19.0,28.0,73,0.00,,,0.00,Weather View 32 v70,2013-09-28 16:15:00,
2013-09-28 12:20:00,72.0,62.8,29.69,ENE,67,17.0,28.0,73,0.00,,,0.00,Weather View 32 v70,2013-09-28 16:20:00,
2013-09-28 12:25:00,72.0,62.8,29.69,ENE,67,19.0,28.0,73,0.00,,,0.00,Weather View 32 v70,2013-09-28 16:25:00,
2013-09-28 12:35:00,73.0,63.8,29.67,ENE,67,17.0,28.0,73,0.00,,,0.00,Weather View 32 v70,2013-09-28 16:35:00,
2013-09-28 12:40:00,73.0,63.8,29.67,ENE,67,19.0,28.0,73,0.00,,,0.00,Weather View 32 v70,2013-09-28 16:40:00,
2013-09-28 12:45:00,72.0,62.8,29.67,ENE,67,18.0,28.0,73,0.00,,,0.00,Weather View 32 v70,2013-09-28 16:45:00,
2013-09-28 12:50:00,73.0,63.8,29.68,ENE,67,13.0,28.0,73,0.00,,,0.00,Weather View 32 v70,2013-09-28 16:50:00,
2013-09-28 12:55:00,73.0,63.8,29.68,ENE,67,17.0,28.0,73,0.00,,,0.00,Weather View 32 v70,2013-09-28 16:55:00,
2013-09-28 13:00:00,72.0,62.8,29.67,ENE,67,14.0,28.0,73,0.00,,,0.00,Weather View 32 v70,2013-09-28 17:00:00,
2013-09-28 13:05:00,72.0,62.8,29.67,NNW,337,16.0,28.0,73,0.00,,,0.00,Weather View 32 v70,2013-09-28 17:05:00,
2013-09-28 13:10:00,73.0,63.8,29.67,NNW,337,15.0,28.0,73,0.00,,,0.00,Weather View 32 v70,2013-09-28 17:10:00,
2013-09-28 13:15:00,73.0,63.8,29.67,NNW,337,14.0,28.0,73,0.00,,,0.00,Weather View 32 v70,2013-09-28 17:15:00,
2013-09-28 13:20:00,73.0,63.8,29.69,NNW,337,12.0,28.0,73,0.00,,,0.00,Weather View 32 v70,2013-09-28 17:20:00,
2013-09-28 13:30:00,73.0,64.2,29.68,ENE,67,19.0,28.0,74,0.00,,,0.00,Weather View 32 v70,2013-09-28 17:30:00,
2013-09-28 13:35:00,73.0,63.8,29.68,NNW,337,17.0,28.0,73,0.00,,,0.00,Weather View 32 v70,2013-09-28 17:35:00,
2013-09-28 13:40:00,74.0,65.2,29.66,NNW,337,20.0,28.0,74,0.00,,,0.00,Weather View 32 v70,2013-09-28 17:40:00,
2013-09-28 13:45:00,73.0,64.2,29.66,ENE,67,17.0,28.0,74,0.00,,,0.00,Weather View 32 v70,2013-09-28 17:45:00,
2013-09-28 13:55:00,73.0,64.2,29.66,NNW,337,14.0,26.0,74,0.00,,,0.00,Weather View 32 v70,2013-09-28 17:55:00,
2013-09-28 14:05:00,74.0,65.2,29.68,NNW,337,5.0,26.0,74,0.00,,,0.00,Weather View 32 v70,2013-09-28 18:05:00,
2013-09-28 14:10:00,73.0,64.2,29.66,NNW,337,17.0,26.0,74,0.00,,,0.00,Weather View 32 v70,2013-09-28 18:10:00,
2013-09-28 14:17:00,73.0,64.2,29.66,NNW,337,17.0,26.0,74,0.00,,,0.00,Weather View 32 v70,2013-09-28 18:17:00,
2013-09-28 14:25:00,73.0,64.2,29.65,ENE,67,19.0,26.0,74,0.00,,,0.00,Weather View 32 v70,2013-09-28 18:25:00,
2013-09-28 14:30:00,73.0,64.2,29.66,ENE,67,20.0,26.0,74,0.00,,,0.00,Weather View 32 v70,2013-09-28 18:30:00,
2013-09-28 14:35:00,73.0,64.2,29.66,NNW,337,15.0,26.0,74,0.00,,,0.00,Weather View 32 v70,2013-09-28 18:35:00,
2013-09-28 14:40:00,74.0,65.2,29.64,NNW,337,10.0,26.0,74,0.00,,,0.00,Weather View 32 v70,2013-09-28 18:40:00,
2013-09-28 14:45:00,74.0,65.2,29.64,NNW,337,16.0,26.0,74,0.00,,,0.00,Weather View 32 v70,2013-09-28 18:45:00,
2013-09-28 14:50:00,73.0,64.2,29.65,ENE,67,13.0,23.0,74,0.00,,,0.00,Weather View 32 v70,2013-09-28 18:50:00,
2013-09-28 14:55:00,73.0,64.2,29.65,ENE,67,20.0,23.0,74,0.00,,,0.00,Weather View 32 v70,2013-09-28 18:55:00,
2013-09-28 15:00:00,74.0,65.2,29.63,NNW,337,16.0,27.0,74,0.00,,,0.00,Weather View 32 v70,2013-09-28 19:00:00,
2013-09-28 15:05:00,74.0,65.2,29.63,NNW,337,12.0,27.0,74,0.00,,,0.00,Weather View 32 v70,2013-09-28 19:05:00,
2013-09-28 15:15:00,74.0,65.2,29.63,NNW,337,20.0,27.0,74,0.00,,,0.00,Weather View 32 v70,2013-09-28 19:15:00,
2013-09-28 15:20:00,74.0,65.2,29.63,NNW,337,12.0,27.0,74,0.00,,,0.00,Weather View 32 v70,2013-09-28 19:20:00,
2013-09-28 15:25:00,75.0,66.1,29.63,NNW,337,17.0,27.0,74,0.00,,,0.00,Weather View 32 v70,2013-09-28 19:25:00,
2013-09-28 15:30:00,74.0,65.2,29.62,NNW,337,13.0,27.0,74,0.00,,,0.00,Weather View 32 v70,2013-09-28 19:30:00,
2013-09-28 15:35:00,74.0,65.2,29.62,NNW,337,13.0,27.0,74,0.00,,,0.00,Weather View 32 v70,2013-09-28 19:35:00,
2013-09-28 15:45:00,74.0,65.2,29.65,NNW,337,15.0,27.0,74,0.00,,,0.00,Weather View 32 v70,2013-09-28 19:45:00,
2013-09-28 15:50:00,74.0,65.2,29.64,NNW,337,12.0,27.0,74,0.00,,,0.00,Weather View 32 v70,2013-09-28 19:50:00,
2013-09-28 15:55:00,74.0,65.5,29.64,NNW,337,13.0,27.0,75,0.00,,,0.00,Weather View 32 v70,2013-09-28 19:55:00,
2013-09-28 16:00:00,74.0,65.2,29.62,NNW,337,6.0,25.0,74,0.00,,,0.00,Weather View 32 v70,2013-09-28 20:00:00,
2013-09-28 16:10:00,74.0,65.5,29.64,NNW,337,17.0,25.0,75,0.00,,,0.00,Weather View 32 v70,2013-09-28 20:10:00,
2013-09-28 16:15:00,74.0,65.5,29.64,NNW,337,13.0,25.0,75,0.00,,,0.00,Weather View 32 v70,2013-09-28 20:15:00,
2013-09-28 16:20:00,74.0,65.5,29.64,NNW,337,15.0,25.0,75,0.00,,,0.00,Weather View 32 v70,2013-09-28 20:20:00,
2013-09-28 16:25:00,74.0,65.5,29.64,NNW,337,11.0,25.0,75,0.00,,,0.00,Weather View 32 v70,2013-09-28 20:25:00,
2013-09-28 16:30:00,74.0,65.5,29.62,NNW,337,10.0,21.0,75,0.00,,,0.00,Weather View 32 v70,2013-09-28 20:30:00,
2013-09-28 16:35:00,74.0,65.5,29.62,NNW,337,14.0,21.0,75,0.00,,,0.00,Weather View 32 v70,2013-09-28 20:35:00,
2013-09-28 16:40:00,74.0,65.5,29.64,NNW,337,13.0,21.0,75,0.00,,,0.00,Weather View 32 v70,2013-09-28 20:40:00,
2013-09-28 16:45:00,74.0,65.5,29.64,NNW,337,8.0,21.0,75,0.00,,,0.00,Weather View 32 v70,2013-09-28 20:45:00,
2013-09-28 16:50:00,74.0,65.5,29.63,NNW,337,12.0,21.0,75,0.00,,,0.00,Weather View 32 v70,2013-09-28 20:50:00,
2013-09-28 16:55:00,74.0,65.5,29.63,NNW,337,12.0,20.0,75,0.00,,,0.00,Weather View 32 v70,2013-09-28 20:55:00,
2013-09-28 17:05:00,74.0,65.5,29.62,ENE,67,12.0,20.0,75,0.00,,,0.00,Weather View 32 v70,2013-09-28 21:05:00,
2013-09-28 17:10:00,74.0,65.5,29.62,ENE,67,12.0,19.0,75,0.00,,,0.00,Weather View 32 v70,2013-09-28 21:10:00,
2013-09-28 17:18:00,74.0,65.5,29.62,ENE,67,13.0,19.0,75,0.00,,,0.00,Weather View 32 v70,2013-09-28 21:18:00,
2013-09-28 17:25:00,74.0,65.5,29.61,ENE,67,11.0,19.0,75,0.00,,,0.00,Weather View 32 v70,2013-09-28 21:25:00,
2013-09-28 17:30:00,75.0,66.5,29.62,ENE,67,9.0,19.0,75,0.00,,,0.00,Weather View 32 v70,2013-09-28 21:30:00,
2013-09-28 17:35:00,75.0,66.5,29.62,ENE,67,18.0,19.0,75,0.00,,,0.00,Weather View 32 v70,2013-09-28 21:35:00,
2013-09-28 17:40:00,74.0,65.5,29.62,ENE,67,17.0,21.0,75,0.00,,,0.00,Weather View 32 v70,2013-09-28 21:40:00,
2013-09-28 17:45:00,73.0,64.2,29.62,ENE,67,14.0,21.0,74,0.00,,,0.00,Weather View 32 v70,2013-09-28 21:45:00,
2013-09-28 17:50:00,73.0,64.2,29.63,ENE,67,10.0,21.0,74,0.00,,,0.00,Weather View 32 v70,2013-09-28 21:50:00,
2013-09-28 18:00:00,73.0,64.2,29.65,ENE,67,19.0,22.0,74,0.00,,,0.00,Weather View 32 v70,2013-09-28 22:00:00,
2013-09-28 18:05:00,73.0,64.2,29.65,ENE,67,19.0,26.0,74,0.00,,,0.00,Weather View 32 v70,2013-09-28 22:05:00,
2013-09-28 18:10:00,73.0,64.2,29.63,ENE,67,18.0,26.0,74,0.00,,,0.00,Weather View 32 v70,2013-09-28 22:10:00,
2013-09-28 18:15:00,73.0,64.2,29.63,ENE,67,15.0,26.0,74,0.00,,,0.00,Weather View 32 v70,2013-09-28 22:15:00,
2013-09-28 18:20:00,73.0,64.2,29.62,ENE,67,16.0,26.0,74,0.00,,,0.00,Weather View 32 v70,2013-09-28 22:20:00,
2013-09-28 18:25:00,73.0,64.2,29.62,ENE,67,17.0,26.0,74,0.00,,,0.00,Weather View 32 v70,2013-09-28 22:25:00,
2013-09-28 18:30:00,73.0,64.2,29.65,ENE,67,16.0,26.0,74,0.00,,,0.00,Weather View 32 v70,2013-09-28 22:30:00,
2013-09-28 18:35:00,73.0,64.2,29.65,ENE,67,21.0,26.0,74,0.00,,,0.00,Weather View 32 v70,2013-09-28 22:35:00,
2013-09-28 18:40:00,73.0,64.2,29.62,ENE,67,18.0,26.0,74,0.00,,,0.00,Weather View 32 v70,2013-09-28 22:40:00,
2013-09-28 18:45:00,73.0,64.2,29.62,ENE,67,19.0,26.0,74,0.00,,,0.00,Weather View 32 v70,2013-09-28 22:45:00,
2013-09-28 18:55:00,73.0,64.2,29.64,ENE,67,15.0,26.0,74,0.00,,,0.00,Weather View 32 v70,2013-09-28 22:55:00,
2013-09-28 19:00:00,73.0,64.2,29.63,ENE,67,17.0,26.0,74,0.00,,,0.00,Weather View 32 v70,2013-09-28 23:00:00,
2013-09-28 19:05:00,73.0,64.2,29.63,ENE,67,13.0,25.0,74,0.00,,,0.00,Weather View 32 v70,2013-09-28 23:05:00,
2013-09-28 19:10:00,73.0,64.2,29.63,ENE,67,17.0,25.0,74,0.00,,,0.00,Weather View 32 v70,2013-09-28 23:10:00,
2013-09-28 19:15:00,72.0,63.2,29.63,ENE,67,16.0,25.0,74,0.00,,,0.00,Weather View 32 v70,2013-09-28 23:15:00,
2013-09-28 19:20:00,72.0,63.2,29.65,ENE,67,13.0,25.0,74,0.00,,,0.00,Weather View 32 v70,2013-09-28 23:20:00,
2013-09-28 19:25:00,72.0,63.2,29.65,NNW,337,12.0,25.0,74,0.00,,,0.00,Weather View 32 v70,2013-09-28 23:25:00,
2013-09-28 19:30:00,71.0,62.3,29.65,NNW,337,10.0,25.0,74,0.00,,,0.00,Weather View 32 v70,2013-09-28 23:30:00,
2013-09-28 19:40:00,71.0,61.9,29.66,NNW,337,10.0,25.0,73,0.00,,,0.00,Weather View 32 v70,2013-09-28 23:40:00,
2013-09-28 19:45:00,70.0,60.9,29.66,NNW,337,7.0,23.0,73,0.00,,,0.00,Weather View 32 v70,2013-09-28 23:45:00,
2013-09-28 19:50:00,70.0,60.9,29.67,NNW,337,6.0,23.0,73,0.00,,,0.00,Weather View 32 v70,2013-09-28 23:50:00,
2013-09-28 19:55:00,70.0,60.9,29.67,NNW,337,12.0,23.0,73,0.00,,,0.00,Weather View 32 v70,2013-09-28 23:55:00,
2013-09-28 20:00:00,70.0,60.9,29.67,NNW,337,11.0,23.0,73,0.00,,,0.00,Weather View 32 v70,2013-09-29 00:00:00,
2013-09-28 20:05:00,70.0,60.9,29.67,NNW,337,9.0,23.0,73,0.00,,,0.00,Weather View 32 v70,2013-09-29 00:05:00,
2013-09-28 20:10:00,69.0,60.0,29.66,NNW,337,12.0,23.0,73,0.00,,,0.00,Weather View 32 v70,2013-09-29 00:10:00,
2013-09-28 20:15:00,69.0,60.0,29.66,NNW,337,12.0,22.0,73,0.00,,,0.00,Weather View 32 v70,2013-09-29 00:15:00,
2013-09-28 20:20:00,69.0,60.0,29.68,NNW,337,10.0,17.0,73,0.00,,,0.00,Weather View 32 v70,2013-09-29 00:20:00,
2013-09-28 20:30:00,68.0,59.0,29.67,NNW,337,8.0,15.0,73,0.00,,,0.00,Weather View 32 v70,2013-09-29 00:30:00,
2013-09-28 20:40:00,68.0,59.0,29.68,NNW,337,9.0,15.0,73,0.00,,,0.00,Weather View 32 v70,2013-09-29 00:40:00,
2013-09-28 20:45:00,68.0,59.0,29.68,NNW,337,13.0,15.0,73,0.00,,,0.00,Weather View 32 v70,2013-09-29 00:45:00,
2013-09-28 20:50:00,68.0,58.6,29.67,NNW,337,6.0,15.0,72,0.00,,,0.00,Weather View 32 v70,2013-09-29 00:50:00,
2013-09-28 20:55:00,67.0,57.3,29.67,NNW,337,9.0,15.0,71,0.00,,,0.00,Weather View 32 v70,2013-09-29 00:55:00,
2013-09-28 21:00:00,67.0,57.3,29.68,NNW,337,15.0,16.0,71,0.00,,,0.00,Weather View 32 v70,2013-09-29 01:00:00,
2013-09-28 21:05:00,67.0,57.3,29.68,NNW,337,15.0,18.0,71,0.00,,,0.00,Weather View 32 v70,2013-09-29 01:05:00,
2013-09-28 21:10:00,67.0,57.3,29.68,NNW,337,9.0,18.0,71,0.00,,,0.00,Weather View 32 v70,2013-09-29 01:10:00,
2013-09-28 21:20:00,67.0,56.9,29.68,NNW,337,13.0,18.0,70,0.00,,,0.00,Weather View 32 v70,2013-09-29 01:20:00,
2013-09-28 21:25:00,67.0,56.9,29.68,NNW,337,16.0,19.0,70,0.00,,,0.00,Weather View 32 v70,2013-09-29 01:25:00,
2013-09-28 21:30:00,66.0,55.9,29.69,NNW,337,16.0,19.0,70,0.00,,,0.00,Weather View 32 v70,2013-09-29 01:30:00,
2013-09-28 21:35:00,66.0,55.9,29.69,NNW,337,15.0,20.0,70,0.00,,,0.00,Weather View 32 v70,2013-09-29 01:35:00,
2013-09-28 21:45:00,66.0,55.9,29.69,NNW,337,12.0,20.0,70,0.00,,,0.00,Weather View 32 v70,2013-09-29 01:45:00,
2013-09-28 21:50:00,66.0,55.9,29.68,NNW,337,16.0,20.0,70,0.00,,,0.00,Weather View 32 v70,2013-09-29 01:50:00,
2013-09-28 21:55:00,66.0,55.9,29.68,ENE,67,14.0,20.0,70,0.00,,,0.00,Weather View 32 v70,2013-09-29 01:55:00,
2013-09-28 22:05:00,65.0,54.6,29.68,NNW,337,12.0,20.0,69,0.00,,,0.00,Weather View 32 v70,2013-09-29 02:05:00,
2013-09-28 22:15:00,65.0,54.6,29.70,NNW,337,17.0,20.0,69,0.00,,,0.00,Weather View 32 v70,2013-09-29 02:15:00,
2013-09-28 22:20:00,65.0,54.6,29.69,NNW,337,15.0,20.0,69,0.00,,,0.00,Weather View 32 v70,2013-09-29 02:20:00,
2013-09-28 22:25:00,65.0,54.6,29.69,NNW,337,6.0,20.0,69,0.00,,,0.00,Weather View 32 v70,2013-09-29 02:25:00,
2013-09-28 22:30:00,65.0,54.2,29.69,NNW,337,12.0,20.0,68,0.00,,,0.00,Weather View 32 v70,2013-09-29 02:30:00,
2013-09-28 22:35:00,64.0,53.2,29.69,NNW,337,14.0,20.0,68,0.00,,,0.00,Weather View 32 v70,2013-09-29 02:35:00,
2013-09-28 22:45:00,64.0,52.8,29.71,NNW,337,10.0,20.0,67,0.00,,,0.00,Weather View 32 v70,2013-09-29 02:45:00,
2013-09-28 22:50:00,64.0,52.8,29.69,NNW,337,14.0,20.0,67,0.00,,,0.00,Weather View 32 v70,2013-09-29 02:50:00,
2013-09-28 22:55:00,64.0,52.8,29.69,NNW,337,15.0,19.0,67,0.00,,,0.00,Weather View 32 v70,2013-09-29 02:55:00,
2013-09-28 23:05:00,64.0,52.8,29.68,NNW,337,15.0,19.0,67,0.00,,,0.00,Weather View 32 v70,2013-09-29 03:05:00,
2013-09-28 23:15:00,64.0,52.4,29.71,NNW,337,12.0,19.0,66,0.00,,,0.00,Weather View 32 v70,2013-09-29 03:15:00,
2013-09-28 23:22:00,64.0,52.4,29.68,NNW,337,16.0,18.0,66,0.00,,,0.00,Weather View 32 v70,2013-09-29 03:22:00,
2013-09-28 23:30:00,64.0,52.4,29.68,NNW,337,18.0,19.0,66,0.00,,,0.00,Weather View 32 v70,2013-09-29 03:30:00,
2013-09-28 23:35:00,64.0,52.0,29.68,NNW,337,13.0,19.0,65,0.00,,,0.00,Weather View 32 v70,2013-09-29 03:35:00,
2013-09-28 23:40:00,64.0,52.0,29.70,NNW,337,13.0,19.0,65,0.00,,,0.00,Weather View 32 v70,2013-09-29 03:40:00,
2013-09-28 23:50:00,64.0,52.0,29.67,NNW,337,14.0,19.0,65,0.00,,,0.00,Weather View 32 v70,2013-09-29 03:50:00,